Location: Unspecified
(0.0000°N, 0.0000°E)
Time: 00:53:37
(UTC+00:00)

Tiros 1 despin weight - Visible Passes

Search period start: 26 May 2019 00:00
Search period end: 05 June 2019 00:00
Orbit: 594 x 643 km, 48.2° (Epoch: 25 May)

Date Brightness Start Highest point End Pass type
(mag) Time Alt. Az. Time Alt. Az. Time Alt. Az.
26 May ? 19:31:34 10° W 19:33:51 13° SW 19:36:09 10° SSW visible
28 May ? 04:33:11 10° SSE 04:35:52 16° SE 04:38:33 10° E visible
28 May ? 18:21:52 10° WNW 18:25:34 23° SW 18:29:17 10° S visible
29 May ? 04:49:03 14° SSW 04:52:29 42° SE 04:56:39 10° ENE visible
30 May ? 05:05:36 16° SW 05:09:02 65° NW 05:13:24 10° NNE visible
31 May ? 03:45:01 23° ESE 03:45:01 23° ESE 03:47:48 10° ENE visible
31 May ? 05:22:08 10° WSW 05:25:37 23° NW 05:29:07 10° N visible
01 Jun ? 04:01:29 58° E 04:01:29 58° E 04:05:12 10° NE visible
02 Jun ? 04:17:53 39° NNW 04:17:53 39° NNW 04:21:32 10° NNE visible
03 Jun ? 04:34:14 15° NW 04:34:14 15° NW 04:36:34 10° NNW visible
04 Jun ? 03:13:25 11° NE 03:13:25 11° NE 03:13:35 10° NE visible
